Find Kosmos-565

NORAD ID: 6676 Int'l Des: 1973-037 Owner: GUKOSR Country: SU operational
LEOCIRCULAR

Live Position

Loading 3D Globe...

About Kosmos-565

Description loading...

Upcoming Passes

Passes for default location (London). Set your location on the main map for personalized predictions.

Altitude History

Loading altitude history...

Two-Line Element Set

1 6676U 73037B 26106.39607795 -.00000014 00000-0 94985-5 0 9992
2 6676 74.0161 87.7890 0025464 22.5819 135.7213 12.48970109409795
Epoch: Apr 16, 2026 • Age: 25 hours

Current Status

Altitude 1485.2 km
Velocity 7.12 km/s
Sub-Earth Point 22.78°N, 103.28°W
Type other

Most Searched